تهران, ایران

01:40 AM +0330 on نوامبر 13, 2018 (GMT +0330)
Mehrabad International | | Change Station

Elev 3907 ft 35.68 °N, 51.35 °E | Updated 10 minutes ago

برف
برف
50 °F
Feels Like 50 °F
N
5
باد متغير باد from ENE

امروز
High -- | Low -- °F
--% Chance of Precip.
دیروز
High -- | Low -- °F
Precip. -- در
فشار 30.18 در
ديد 4.3 مايل، ميل (در برابر كيلومتر
ابری ابرهای پراکنده 3000 ft
نيم ابرى 8000 ft
قطره شبنم 45 °F
رطوبت 82%
بارش باران 0.00 در
برف عمیق Not available.
6:35 AM 4:55 PM
Waxing Crescent, 26% visible
METAR OIII 122200Z 07004KT 7000 SCT030 OVC080 10/07 Q1022 A3018 NOSIG
فشار 30.18 در
ديد 4.3 مايل، ميل (در برابر كيلومتر
ابری ابرهای پراکنده 3000 ft
نيم ابرى 8000 ft
قطره شبنم 45 °F
رطوبت 82%
بارش باران 0.00 در
برف عمیق Not available.
6:35 AM 4:55 PM
Waxing Crescent, 26% visible
METAR OIII 122200Z 07004KT 7000 SCT030 OVC080 10/07 Q1022 A3018 NOSIG

Get Severe Weather Alerts

Thanks for signing up!

Be on the lookout for a verification email in your inbox.

You'll start receiving the daily forecast at 6 AM.

×

10-Day Weather Forecast

No radar image for this location.
×

Almanac

ستاره شناسی

Nov. 13, 2018 Rise Set
وقت حقیقی
تاریک و روشن اجتماعی
تاریک روشن دریایی
شفق و فلق نجومی
ماه
میزان روشنایی روز
طول روز
Tomorrow will be .
, % of the Moon is Illuminated

Today's Extremes

Country Highs Country Lows

Community

WunderPhotos

Category 6

Welcome to Category 6. This is the collective home for Weather Underground's featured writeups by Dr. Jeff Masters (right), Bob Henson (left), Chris Burt, and other regular contributors.

Nearby

تمیزی هوا

  تمیزی هوا AQ Index آلاینده
Not available.

عمق برف

Station Depth Elevation

Earthquake Activity

شهر Distance Mag. Time & Date
Minimum magnitude displayed is 2.5.

Coastal Water Temperatures

منطقه درجه حرارت

Stations

Nearby Weather Stations

Station Location دما باد سرد قطره شبنم رطوبت باد Precip. Elev ارتقا دادن Type